| time (UTC) | temp C | wind direction | speed KPH | gust KPH | rain 1hr cm | rain 24hr cm | rain mn cm | humidity % | barometer mb |
| 20260503181531 | 21 | 196 | 1.6 | 6.4 | 0.00 | 0.00 | 0.00 | 46 | 1010.9 |
| 20260503181030 | 21 | 240 | 1.6 | 6.4 | 0.00 | 0.00 | 0.00 | 46 | 1010.9 |
| 20260503180528 | 21 | 218 | 1.6 | 6.4 | 0.00 | 0.00 | 0.00 | 46 | 1010.8 |
| 20260503180030 | 21 | 173 | 1.6 | 6.4 | 0.00 | 0.00 | 0.00 | 47 | 1010.9 |
| 20260503175525 | 21 | 164 | 1.6 | 4.8 | 0.00 | 0.00 | 0.00 | 47 | 1010.9 |
| 20260503175023 | 21 | 207 | 1.6 | 8.0 | 0.00 | 0.00 | 0.00 | 48 | 1011.0 |
| 20260503174522 | 20 | 151 | 3.2 | 8.0 | 0.00 | 0.00 | 0.00 | 48 | 1011.0 |
| 20260503174022 | 21 | 138 | 0.0 | 6.4 | 0.00 | 0.00 | 0.00 | 49 | 1011.0 |
| 20260503173519 | 20 | 145 | 0.0 | 3.2 | 0.00 | 0.00 | 0.00 | 51 | 1011.0 |
| 20260503173036 | 20 | 165 | 0.0 | 8.0 | 0.00 | 0.00 | 0.00 | 52 | 1011.1 |
| 20260503172516 | 20 | 166 | 0.0 | 8.0 | 0.00 | 0.00 | 0.00 | 53 | 1011.2 |
| 20260503172015 | 20 | 34 | 1.6 | 4.8 | 0.00 | 0.00 | 0.00 | 54 | 1011.2 |
| 20260503171513 | 19 | 82 | 0.0 | 6.4 | 0.00 | 0.00 | 0.00 | 54 | 1011.2 |
| 20260503171014 | 19 | 180 | 3.2 | 6.4 | 0.00 | 0.00 | 0.00 | 54 | 1011.2 |
| 20260503170510 | 19 | 61 | 1.6 | 4.8 | 0.00 | 0.00 | 0.00 | 54 | 1011.2 |
| 20260503150538 | 13 | 13 | 0.0 | 3.2 | 0.00 | 0.00 | 0.00 | 68 | 1011.8 |
| 20260503131028 | 12 | 17 | 1.6 | 3.2 | 0.00 | 0.00 | 0.00 | 64 | 1011.6 |
| 20260503130527 | 13 | 18 | 1.6 | 3.2 | 0.00 | 0.00 | 0.00 | 65 | 1011.5 |
| 20260503110517 | 13 | 354 | 1.6 | 4.8 | 0.00 | 0.00 | 0.00 | 61 | 1011.7 |
| 20260503090503 | 16 | 271 | 0.0 | 9.7 | 0.00 | 0.00 | 0.00 | 50 | 1011.7 |
| 20260503081558 | 15 | 303 | 1.6 | 8.0 | 0.00 | 0.00 | 0.00 | 57 | 1011.4 |
| 20260503081102 | 15 | 270 | 3.2 | 8.0 | 0.00 | 0.00 | 0.00 | 58 | 1011.4 |
| 20260503080600 | 15 | 318 | 1.6 | 6.4 | 0.00 | 0.00 | 0.00 | 57 | 1011.4 |
| 20260503072552 | 15 | 1 | 1.6 | 9.7 | 0.00 | 0.00 | 0.00 | 56 | 1011.4 |
| 20260503072051 | 15 | 10 | 1.6 | 4.8 | 0.00 | 0.00 | 0.00 | 56 | 1011.3 |
| 20260503071558 | 15 | 9 | 1.6 | 6.4 | 0.00 | 0.00 | 0.00 | 55 | 1011.3 |
| 20260503071049 | 15 | 314 | 1.6 | 6.4 | 0.00 | 0.00 | 0.00 | 54 | 1011.3 |
| 20260503070547 | 15 | 319 | 0.0 | 9.7 | 0.00 | 0.00 | 0.00 | 55 | 1011.2 |
| 20260503055034 | 16 | 356 | 1.6 | 14.5 | 0.00 | 0.00 | 0.00 | 52 | 1011.0 |
| 20260503054536 | 17 | 303 | 3.2 | 11.3 | 0.00 | 0.00 | 0.00 | 52 | 1011.0 |
| 20260503054034 | 16 | 325 | 1.6 | 16.1 | 0.00 | 0.00 | 0.00 | 53 | 1011.0 |
| 20260503053534 | 17 | 297 | 3.2 | 16.1 | 0.00 | 0.00 | 0.00 | 53 | 1011.0 |
| 20260503053039 | 16 | 342 | 3.2 | 14.5 | 0.00 | 0.00 | 0.00 | 53 | 1011.0 |
| 20260503052534 | 16 | 10 | 3.2 | 8.0 | 0.00 | 0.00 | 0.00 | 54 | 1011.0 |
| 20260503052033 | 16 | 21 | 3.2 | 6.4 | 0.00 | 0.00 | 0.00 | 55 | 1010.9 |
| 20260503051533 | 17 | 8 | 3.2 | 9.7 | 0.00 | 0.00 | 0.00 | 54 | 1011.0 |
| 20260503051032 | 17 | 356 | 3.2 | 14.5 | 0.00 | 0.00 | 0.00 | 53 | 1010.9 |
| 20260503050533 | 17 | 254 | 4.8 | 14.5 | 0.00 | 0.00 | 0.00 | 52 | 1011.0 |
| 20260503050033 | 17 | 340 | 1.6 | 9.7 | 0.00 | 0.00 | 0.00 | 53 | 1011.0 |
| 20260503045537 | 17 | 354 | 1.6 | 9.7 | 0.00 | 0.00 | 0.00 | 53 | 1010.9 |
| 20260503045032 | 17 | 310 | 1.6 | 9.7 | 0.00 | 0.00 | 0.00 | 53 | 1011.0 |
| 20260503044535 | 17 | 332 | 3.2 | 9.7 | 0.00 | 0.00 | 0.00 | 53 | 1010.9 |
| 20260503044032 | 17 | 61 | 1.6 | 4.8 | 0.00 | 0.00 | 0.00 | 54 | 1010.9 |
| 20260503043533 | 17 | 2 | 1.6 | 6.4 | 0.00 | 0.00 | 0.00 | 53 | 1010.9 |
| 20260503043031 | 18 | 43 | 1.6 | 6.4 | 0.00 | 0.00 | 0.00 | 52 | 1010.9 |
| 20260503042531 | 18 | 299 | 3.2 | 9.7 | 0.00 | 0.00 | 0.00 | 52 | 1010.8 |
| 20260503042032 | 18 | 65 | 1.6 | 11.3 | 0.00 | 0.00 | 0.00 | 51 | 1010.7 |
| 20260503041533 | 18 | 302 | 3.2 | 11.3 | 0.00 | 0.00 | 0.00 | 52 | 1010.8 |
| 20260503041035 | 18 | 20 | 1.6 | 8.0 | 0.00 | 0.00 | 0.00 | 51 | 1010.7 |
| 20260503040532 | 18 | 277 | 1.6 | 8.0 | 0.00 | 0.00 | 0.00 | 51 | 1010.7 |
| 20260503040034 | 18 | 337 | 3.2 | 8.0 | 0.00 | 0.00 | 0.00 | 51 | 1010.6 |
| 20260503035531 | 19 | 36 | 1.6 | 11.3 | 0.00 | 0.00 | 0.00 | 52 | 1010.6 |
| 20260503035032 | 19 | 35 | 1.6 | 11.3 | 0.00 | 0.00 | 0.00 | 50 | 1010.5 |
| 20260503034531 | 19 | 321 | 1.6 | 6.4 | 0.00 | 0.00 | 0.00 | 50 | 1010.5 |
| 20260503034031 | 19 | 318 | 3.2 | 6.4 | 0.00 | 0.00 | 0.00 | 52 | 1010.4 |
| 20260503033529 | 20 | 249 | 1.6 | 6.4 | 0.00 | 0.00 | 0.00 | 52 | 1010.4 |
| 20260503033049 | 19 | 132 | 1.6 | 8.0 | 0.00 | 0.00 | 0.00 | 52 | 1010.3 |
| 20260503032527 | 20 | 346 | 1.6 | 4.8 | 0.00 | 0.00 | 0.00 | 54 | 1010.2 |
| 20260503032028 | 20 | 269 | 1.6 | 4.8 | 0.00 | 0.00 | 0.00 | 53 | 1010.2 |
| 20260503031533 | 20 | 269 | 0.0 | 4.8 | 0.00 | 0.00 | 0.00 | 55 | 1010.1 |
| 20260503031023 | 20 | 268 | 0.0 | 6.4 | 0.00 | 0.00 | 0.00 | 53 | 1010.1 |
| 20260503030521 | 20 | 306 | 1.6 | 8.0 | 0.00 | 0.00 | 0.00 | 57 | 1010.1 |
| 20260503030025 | 20 | 269 | 0.0 | 0.0 | 0.00 | 0.00 | 0.00 | 58 | 1010.1 |
| 20260503025519 | 20 | 197 | 0.0 | 1.6 | 0.00 | 0.00 | 0.00 | 60 | 1010.0 |
| 20260503025019 | 21 | 197 | 0.0 | 3.2 | 0.00 | 0.00 | 0.00 | 60 | 1010.0 |
| 20260503024515 | 21 | 197 | 0.0 | 3.2 | 0.00 | 0.00 | 0.00 | 60 | 1010.0 |
| 20260503024014 | 21 | 195 | 0.0 | 1.6 | 0.00 | 0.00 | 0.00 | 59 | 1010.0 |
| 20260503023513 | 21 | 195 | 0.0 | 1.6 | 0.00 | 0.00 | 0.00 | 58 | 1010.0 |
| 20260503023033 | 21 | 195 | 0.0 | 1.6 | 0.00 | 0.00 | 0.00 | 58 | 1010.0 |
| 20260503022510 | 21 | 195 | 0.0 | 1.6 | 0.00 | 0.00 | 0.00 | 56 | 1010.0 |
| 20260503022009 | 22 | 195 | 0.0 | 1.6 | 0.00 | 0.00 | 0.00 | 56 | 1010.0 |
| 20260503021506 | 22 | 195 | 0.0 | 1.6 | 0.00 | 0.00 | 0.00 | 55 | 1009.9 |
| 20260503021005 | 22 | 195 | 0.0 | 1.6 | 0.00 | 0.00 | 0.00 | 53 | 1009.9 |
| 20260503020504 | 23 | 195 | 0.0 | 3.2 | 0.00 | 0.00 | 0.00 | 51 | 1010.0 |
| 20260503020002 | 23 | 195 | 0.0 | 3.2 | 0.00 | 0.00 | 0.00 | 49 | 1010.0 |
| 20260503015600 | 23 | 195 | 0.0 | 3.2 | 0.00 | 0.00 | 0.00 | 50 | 1010.1 |
| 20260503015100 | 23 | 195 | 0.0 | 3.2 | 0.00 | 0.00 | 0.00 | 50 | 1010.1 |
| 20260503014559 | 23 | 195 | 1.6 | 3.2 | 0.00 | 0.00 | 0.00 | 47 | 1010.1 |
| 20260503014059 | 23 | 195 | 0.0 | 3.2 | 0.00 | 0.00 | 0.00 | 46 | 1010.1 |
| 20260503013558 | 23 | 195 | 0.0 | 4.8 | 0.00 | 0.00 | 0.00 | 47 | 1010.1 |
| 20260503013106 | 23 | 195 | 0.0 | 4.8 | 0.00 | 0.00 | 0.00 | 47 | 1010.2 |
| 20260503012558 | 24 | 194 | 0.0 | 4.8 | 0.00 | 0.00 | 0.00 | 47 | 1010.2 |
| 20260503012053 | 23 | 194 | 1.6 | 4.8 | 0.00 | 0.00 | 0.00 | 45 | 1010.3 |
| 20260503011602 | 24 | 197 | 1.6 | 4.8 | 0.00 | 0.00 | 0.00 | 45 | 1010.3 |
| 20260503011055 | 24 | 131 | 0.0 | 4.8 | 0.00 | 0.00 | 0.00 | 44 | 1010.3 |
| 20260503010549 | 24 | 164 | 1.6 | 4.8 | 0.00 | 0.00 | 0.00 | 44 | 1010.3 |
| 20260503010054 | 24 | 165 | 1.6 | 4.8 | 0.00 | 0.00 | 0.00 | 45 | 1010.3 |
| 20260503005549 | 24 | 168 | 1.6 | 4.8 | 0.00 | 0.00 | 0.00 | 44 | 1010.3 |
| 20260503005046 | 24 | 169 | 1.6 | 4.8 | 0.00 | 0.00 | 0.00 | 42 | 1010.3 |
| 20260503004543 | 25 | 165 | 0.0 | 6.4 | 0.00 | 0.00 | 0.00 | 42 | 1010.4 |
| 20260503004041 | 24 | 144 | 1.6 | 6.4 | 0.00 | 0.00 | 0.00 | 42 | 1010.4 |
| 20260503003541 | 24 | 146 | 1.6 | 8.0 | 0.00 | 0.00 | 0.00 | 41 | 1010.4 |
| 20260503003047 | 25 | 197 | 3.2 | 8.0 | 0.00 | 0.00 | 0.00 | 42 | 1010.5 |
| 20260503002538 | 24 | 150 | 1.6 | 4.8 | 0.00 | 0.00 | 0.00 | 42 | 1010.4 |
| 20260503002036 | 25 | 202 | 3.2 | 8.0 | 0.00 | 0.00 | 0.00 | 42 | 1010.5 |
| 20260503001535 | 25 | 133 | 1.6 | 8.0 | 0.00 | 0.00 | 0.00 | 43 | 1010.6 |
| 20260503001032 | 25 | 169 | 1.6 | 6.4 | 0.00 | 0.00 | 0.00 | 41 | 1010.7 |
| 20260503000532 | 25 | 101 | 1.6 | 6.4 | 0.00 | 0.00 | 0.00 | 43 | 1010.7 |
| 20260503000030 | 25 | 167 | 3.2 | 8.0 | 0.00 | 0.00 | 0.00 | 43 | 1010.7 |
| 20260502235529 | 24 | 149 | 4.8 | 8.0 | 0.00 | 0.00 | 0.00 | 42 | 1010.8 |
| 20260502235028 | 24 | 138 | 0.0 | 9.7 | 0.00 | 0.00 | 0.00 | 42 | 1010.8 |
| 20260502234525 | 24 | 178 | 1.6 | 8.0 | 0.00 | 0.00 | 0.00 | 43 | 1010.9 |
| 20260502234025 | 25 | 154 | 1.6 | 6.4 | 0.00 | 0.00 | 0.00 | 44 | 1010.9 |
| 20260502233523 | 25 | 129 | 1.6 | 8.0 | 0.00 | 0.00 | 0.00 | 44 | 1011.0 |
| 20260502233021 | 24 | 170 | 0.0 | 8.0 | 0.00 | 0.00 | 0.00 | 45 | 1011.0 |
| 20260502232520 | 24 | 176 | 1.6 | 8.0 | 0.00 | 0.00 | 0.00 | 44 | 1011.1 |
| 20260502232018 | 23 | 182 | 1.6 | 8.0 | 0.00 | 0.00 | 0.00 | 45 | 1011.1 |
| 20260502231520 | 23 | 177 | 1.6 | 8.0 | 0.00 | 0.00 | 0.00 | 45 | 1011.2 |
| 20260502231017 | 24 | 150 | 3.2 | 8.0 | 0.00 | 0.00 | 0.00 | 44 | 1011.2 |
| 20260502230515 | 23 | 133 | 3.2 | 8.0 | 0.00 | 0.00 | 0.00 | 45 | 1011.3 |
| 20260502230016 | 23 | 130 | 1.6 | 8.0 | 0.00 | 0.00 | 0.00 | 47 | 1011.3 |
| 20260502225512 | 23 | 153 | 3.2 | 8.0 | 0.00 | 0.00 | 0.00 | 46 | 1011.5 |
| 20260502225016 | 23 | 134 | 1.6 | 8.0 | 0.00 | 0.00 | 0.00 | 48 | 1011.5 |
| 20260502224509 | 23 | 141 | 1.6 | 8.0 | 0.00 | 0.00 | 0.00 | 49 | 1011.7 |
| 20260502224007 | 23 | 188 | 3.2 | 9.7 | 0.00 | 0.00 | 0.00 | 46 | 1011.7 |
| 20260502223506 | 24 | 174 | 3.2 | 9.7 | 0.00 | 0.00 | 0.00 | 47 | 1011.8 |
| 20260502223006 | 23 | 111 | 1.6 | 8.0 | 0.00 | 0.00 | 0.00 | 47 | 1011.9 |
| 20260502222503 | 23 | 42 | 1.6 | 8.0 | 0.00 | 0.00 | 0.00 | 47 | 1012.0 |
| 20260502222001 | 23 | 151 | 1.6 | 9.7 | 0.00 | 0.00 | 0.00 | 47 | 1012.0 |
| 20260502221603 | 23 | 172 | 1.6 | 9.7 | 0.00 | 0.00 | 0.00 | 50 | 1012.0 |
| 20260502221059 | 23 | 166 | 1.6 | 9.7 | 0.00 | 0.00 | 0.00 | 48 | 1012.1 |
| 20260502220558 | 23 | 207 | 3.2 | 8.0 | 0.00 | 0.00 | 0.00 | 49 | 1012.1 |
| 20260502220056 | 22 | 169 | 3.2 | 9.7 | 0.00 | 0.00 | 0.00 | 51 | 1012.2 |
| 20260502215555 | 22 | 30 | 3.2 | 9.7 | 0.00 | 0.00 | 0.00 | 52 | 1012.3 |
| 20260502215055 | 22 | 142 | 1.6 | 8.0 | 0.00 | 0.00 | 0.00 | 50 | 1012.3 |
| 20260502214553 | 22 | 89 | 1.6 | 8.0 | 0.00 | 0.00 | 0.00 | 52 | 1012.4 |
| 20260502214051 | 22 | 163 | 1.6 | 9.7 | 0.00 | 0.00 | 0.00 | 50 | 1012.4 |
| 20260502213551 | 22 | 161 | 1.6 | 9.7 | 0.00 | 0.00 | 0.00 | 49 | 1012.5 |
| 20260502213051 | 22 | 172 | 1.6 | 9.7 | 0.00 | 0.00 | 0.00 | 49 | 1012.5 |
| 20260502212549 | 22 | 238 | 1.6 | 8.0 | 0.00 | 0.00 | 0.00 | 52 | 1012.6 |
| 20260502212048 | 21 | 182 | 3.2 | 8.0 | 0.00 | 0.00 | 0.00 | 51 | 1012.6 |
| 20260502211553 | 21 | 155 | 4.8 | 11.3 | 0.00 | 0.00 | 0.00 | 50 | 1012.7 |
| 20260502211048 | 21 | 154 | 3.2 | 11.3 | 0.00 | 0.00 | 0.00 | 49 | 1012.8 |
| 20260502210548 | 22 | 180 | 3.2 | 6.4 | 0.00 | 0.00 | 0.00 | 50 | 1012.8 |
| 20260502210042 | 21 | 125 | 1.6 | 9.7 | 0.00 | 0.00 | 0.00 | 51 | 1012.8 |
| 20260502205540 | 22 | 167 | 4.8 | 9.7 | 0.00 | 0.00 | 0.00 | 48 | 1012.9 |
| 20260502205042 | 21 | 119 | 1.6 | 6.4 | 0.00 | 0.00 | 0.00 | 51 | 1012.9 |
| 20260502204537 | 22 | 116 | 1.6 | 9.7 | 0.00 | 0.00 | 0.00 | 48 | 1013.0 |
| 20260502204038 | 22 | 96 | 4.8 | 12.9 | 0.00 | 0.00 | 0.00 | 47 | 1013.0 |
| 20260502203535 | 21 | 37 | 1.6 | 12.9 | 0.00 | 0.00 | 0.00 | 49 | 1013.1 |
| 20260502203032 | 21 | 191 | 1.6 | 9.7 | 0.00 | 0.00 | 0.00 | 47 | 1013.1 |
| 20260502202531 | 21 | 187 | 3.2 | 11.3 | 0.00 | 0.00 | 0.00 | 47 | 1013.2 |
| 20260502202030 | 21 | 292 | 1.6 | 9.7 | 0.00 | 0.00 | 0.00 | 48 | 1013.3 |
| 20260502201528 | 21 | 130 | 3.2 | 9.7 | 0.00 | 0.00 | 0.00 | 48 | 1013.4 |
| 20260502201027 | 21 | 203 | 1.6 | 8.0 | 0.00 | 0.00 | 0.00 | 51 | 1013.4 |
| 20260502200526 | 21 | 47 | 4.8 | 8.0 | 0.00 | 0.00 | 0.00 | 50 | 1013.4 |
| 20260502200027 | 21 | 50 | 1.6 | 8.0 | 0.00 | 0.00 | 0.00 | 53 | 1013.5 |
| 20260502195522 | 21 | 67 | 1.6 | 8.0 | 0.00 | 0.00 | 0.00 | 53 | 1013.5 |
| 20260502195021 | 21 | 155 | 3.2 | 8.0 | 0.00 | 0.00 | 0.00 | 53 | 1013.7 |
| 20260502194519 | 20 | 186 | 1.6 | 8.0 | 0.00 | 0.00 | 0.00 | 54 | 1013.7 |
| 20260502194018 | 21 | 101 | 3.2 | 9.7 | 0.00 | 0.00 | 0.00 | 52 | 1013.7 |
| 20260502193517 | 20 | 161 | 3.2 | 8.0 | 0.00 | 0.00 | 0.00 | 52 | 1013.7 |
| 20260502193016 | 21 | 217 | 1.6 | 8.0 | 0.00 | 0.00 | 0.00 | 55 | 1013.7 |
| 20260502192514 | 21 | 158 | 3.2 | 8.0 | 0.00 | 0.00 | 0.00 | 51 | 1013.7 |
| 20260502192015 | 20 | 231 | 1.6 | 8.0 | 0.00 | 0.00 | 0.00 | 55 | 1013.7 |
| 20260502191518 | 20 | 142 | 3.2 | 8.0 | 0.00 | 0.00 | 0.00 | 54 | 1013.8 |
| 20260502191009 | 20 | 66 | 3.2 | 8.0 | 0.00 | 0.00 | 0.00 | 53 | 1013.8 |
| 20260502190509 | 21 | 163 | 0.0 | 6.4 | 0.00 | 0.00 | 0.00 | 56 | 1013.8 |
| 20260502190007 | 21 | 79 | 0.0 | 8.0 | 0.00 | 0.00 | 0.00 | 56 | 1013.8 |
| 20260502185507 | 20 | 155 | 1.6 | 8.0 | 0.00 | 0.00 | 0.00 | 54 | 1013.9 |
| 20260502185003 | 21 | 155 | 1.6 | 11.3 | 0.00 | 0.00 | 0.00 | 53 | 1013.8 |
| 20260502184501 | 20 | 148 | 3.2 | 11.3 | 0.00 | 0.00 | 0.00 | 53 | 1013.9 |
| 20260502184100 | 20 | 127 | 1.6 | 11.3 | 0.00 | 0.00 | 0.00 | 54 | 1013.8 |
| 20260502183559 | 20 | 206 | 1.6 | 11.3 | 0.00 | 0.00 | 0.00 | 56 | 1013.9 |
| 20260502183057 | 20 | 210 | 1.6 | 6.4 | 0.00 | 0.00 | 0.00 | 55 | 1013.9 |
| 20260502182556 | 20 | 211 | 1.6 | 8.0 | 0.00 | 0.00 | 0.00 | 57 | 1013.9 |
| 20260502182053 | 19 | 123 | 0.0 | 8.0 | 0.00 | 0.00 | 0.00 | 56 | 1013.9 |